Location: Zilina
(49.2167°N, 18.7333°E)
Time: 05:06:03
(UTC+02:00)

ISS - Pass Details

Date: 27 March 2018
Orbit: 402 x 408 km, 51.6° (Epoch: 16 July)

Event Time Altitude Azimuth Distance (km) Brightness Sun altitude
Rises 19:41:33 0° 219° (SW) 2,339 0.4 -6.2°
Reaches altitude 10° 19:43:46 10° 209° (SSW) 1,482 -0.7 -6.5°
Maximum altitude 19:46:44 30° 146° (SE) 767 -2.8 -7.0°
Drops below altitude 10° 19:49:44 10° 82° (E) 1,494 -1.5 -7.5°
Enters shadow 19:50:02 - 80° (E) 1,608 -1.4 -7.5°
